Find Starlink 6130

NORAD ID: 57104 Int'l Des: 2023-090 Owner: SPXS Country: US Constellation: starlink operational
LEOCIRCULAR

リアルタイム位置

3D地球を読み込み中...

Starlink 6130について

説明を読み込み中...

次回通過

Passes for default location (London). Set your location on the main map for personalized predictions.

高度履歴

Loading altitude history...

軌道要素

1 57104U 23090D 26127.80844874 .00000459 00000-0 26792-4 0 9990
2 57104 43.0020 307.7006 0001345 263.6322 96.4376 15.26741665159360
Epoch: May 7, 2026 • Age: 11 hours

現在のステータス

高度 486.0 km
速度 7.62 km/s
衛星直下点 -4.94°S, 21.7°W
打ち上げ日 Jun 23, 2023
運用期間 2.8 years
タイプ internet

技術仕様

分類 Payload
質量 305.00 kg
乾燥質量 290.00 kg
総質量 305.00 kg
長さ 0.20 m
直径 2.80 m
スパン 9.00 m
形状 Box + pan
製造者 SPXS
バスタイプ Starlink
フェーズステータス In Orbit
所有者/国 SPXS/US

Most Searched